Miscellaneous Local Product
Issued by NWS Hastings, NE

Home | Current Version | Previous Version | Graphics & Text | Print | Product List | Glossary On
Versions: 1 2 3 4 5 6 7 8 9 10 11 12 13 14 15 16 17 18 19 20 21 22 23 24 25 26 27 28 29 30 31 32 33 34 35 36 37 38 39 40 41 42 43 44 45 46 47 48 49 50
000
AXUS43 KGID 050602
MISGRI

GID CWA HOURLY WEATHER ROUNDUP
NATIONAL WEATHER SERVICE HASTINGS NE
100 AM CDT THU MAY 05 2016

NOTE: "FAIR" INDICATES FEW OR NO CLOUDS BELOW 12,000 FEET WITH NO
SIGNIFICANT WEATHER AND/OR OBSTRUCTIONS TO VISIBILITY.

...SOUTH CENTRAL NEBRASKA...

CITY           SKY/WX    TMP DP  RH WIND       PRES   REMARKS
GRAND ISLAND   CLEAR     48  37  65 N3        30.08S
HASTINGS       CLEAR     51  37  58 CALM      30.07S
KEARNEY        CLEAR     52  39  62 NW3       30.09S
ORD            PTCLDY    42  38  85 SW3       30.07S
YORK           CLEAR     48  37  66 NW5       30.07S
AURORA         CLEAR     48  35  61 N5        30.07S
LEXINGTON      CLEAR     47  41  80 CALM      30.08S
HOLDREGE       CLEAR     49  40  73 CALM      30.08S
HEBRON         CLEAR     47  39  74 CALM      30.06S

...NEBRASKA PANHANDLE...

CITY           SKY/WX    TMP DP  RH WIND       PRES   REMARKS
CHADRON        CLEAR     60  38  43 CALM      30.04R
ALLIANCE       CLEAR     46  42  86 SE10      30.08F
SCOTTSBLUFF    CLEAR     51  42  71 E7        30.09S
SIDNEY         CLEAR     47  40  76 S9        30.13S

...WESTERN AND NORTH CENTRAL NEBRASKA...

CITY           SKY/WX    TMP DP  RH WIND       PRES   REMARKS
VALENTINE      CLEAR     49  39  68 CALM      30.07S
AINSWORTH      CLEAR     45  38  77 S7        30.07F
ONEILL         CLEAR     50  45  83 SW3       30.07S
BROKEN BOW     CLEAR     43  38  82 CALM      30.08S
IMPERIAL       CLEAR     52  41  66 SE6       30.10S
NORTH PLATTE   CLEAR     46  40  79 E3        30.08S
MCCOOK         CLEAR     56  41  57 SW3       30.09S

...EASTERN NEBRASKA...

CITY           SKY/WX    TMP DP  RH WIND       PRES   REMARKS
NORFOLK        CLEAR     47  36  65 CALM      30.05S
SO SIOUX CITY  CLEAR     45  38  76 W7        30.03R
TEKAMAH        CLEAR     51  39  63 NW8       30.02R
COLUMBUS       CLEAR     43  32  65 CALM      30.06F
ALBION         CLEAR     41  36  83 CALM      30.07S
OMAHA EPPLEY   CLEAR     52  44  74 CALM      30.02R
OFFUTT AFB     CLEAR     48  44  86 W5        30.01S
MILLARD        CLEAR     49  44  81 CALM      30.03R
LINCOLN        CLEAR     46  39  76 N3        30.06R
NEBRASKA CITY  CLEAR     53  37  55 W8        30.03R
BEATRICE       CLEAR     46  39  78 CALM      30.05S
FALLS CITY     NOT AVBL

...NORTHERN KANSAS...

CITY           SKY/WX    TMP DP  RH WIND       PRES   REMARKS
GOODLAND       CLEAR     56  42  59 S10       30.12S
HILL CITY      CLEAR     47  43  86 W3        30.10R
NORTON         CLEAR     54  39  58 S3        30.08S
PHILLIPSBURG   CLEAR     46  43  87 NW5       30.08S
SMITH CENTER   CLEAR     45  39  81 CALM      30.08S
BELOIT         CLEAR     45  39  81 CALM      30.06S
HAYS           CLEAR     48  39  71 NW3       30.09R
RUSSELL        CLEAR     54  40  59 SW7       30.06S
CONCORDIA      CLEAR     50  36  58 W6        30.06R
SALINA         CLEAR     50  42  74 CALM      30.06S



USA.gov is the U.S. government's official web portal to all federal, state and local government web resources and services.